When you browse on this site, cookies collect data to enhance your experience and personalize the content and advertising you see.
Visit our Privacy Policy to learn more. By continuing to use the site, you agree to this use of cookies and data.
  • în România
  • Lista ţărilor
  • Pe 7 zile
  • Temperatura apei
  • Hartă satelitară
  • Meteo pe hartă
  • Widget-uri
  • user-avatar
    Intrare

    Meteo pe oră la Rozhdestveno

    Astăzi, 19 Februarie, Marţi

    Timp Temperatura Precipitaţii Vânt Presiune Umiditate
    00:00 -14°C° 0 mm 10 m/s 747 mmHg 81%
    01:00 -14°C° 0 mm 10 m/s 748 mmHg 81%
    02:00 -15°C° 0 mm 9 m/s 749 mmHg 81%
    03:00 -16°C° 0 mm 9 m/s 750 mmHg 81%
    04:00 -17°C° 0 mm 9 m/s 751 mmHg 82%
    05:00 -19°C° 0 mm 9 m/s 752 mmHg 82%
    06:00 -18°C° 0 mm 8 m/s 752 mmHg 82%
    07:00 -18°C° 0 mm 8 m/s 753 mmHg 83%
    08:00 -19°C° 0 mm 8 m/s 754 mmHg 83%
    09:00 -19°C° 0 mm 8 m/s 755 mmHg 83%
    10:00 -18°C° 0 mm 8 m/s 755 mmHg 83%
    11:00 -18°C° 0 mm 7 m/s 756 mmHg 82%
    12:00 -18°C° 0 mm 7 m/s 756 mmHg 81%
    13:00 -17°C° 0 mm 7 m/s 757 mmHg 80%
    14:00 -16°C° 0 mm 6 m/s 757 mmHg 79%
    15:00 -16°C° 0 mm 6 m/s 758 mmHg 78%
    16:00 -17°C° 0 mm 5 m/s 758 mmHg 80%
    17:00 -16°C° 0 mm 4 m/s 758 mmHg 81%
    18:00 -16°C° 0 mm 3 m/s 759 mmHg 82%
    19:00 -15°C° 0 mm 3 m/s 759 mmHg 83%
    20:00 -14°C° 0 mm 2 m/s 759 mmHg 84%
    21:00 -11°C° 0 mm 1 m/s 759 mmHg 85%
    22:00 -13°C° 0 mm 2 m/s 759 mmHg 86%
    23:00 -12°C° 0 mm 2 m/s 758 mmHg 86%

    Mâine, 20 Februarie, Miercuri

    Timp Temperatura Precipitaţii Vânt Presiune Umiditate
    00:00 -12°C° 0 mm 2 m/s 758 mmHg 87%
    01:00 -12°C° 0 mm 2 m/s 758 mmHg 88%
    02:00 -13°C° 0 mm 2 m/s 758 mmHg 90%
    03:00 -13°C° 0 mm 2 m/s 757 mmHg 92%
    04:00 -13°C° 0 mm 2 m/s 757 mmHg 93%
    05:00 -13°C° 0 mm 2 m/s 757 mmHg 94%
    06:00 -14°C° 0 mm 2 m/s 757 mmHg 94%
    07:00 -13°C° 0 mm 2 m/s 757 mmHg 94%
    08:00 -12°C° 0 mm 2 m/s 757 mmHg 94%
    09:00 -12°C° 0 mm 2 m/s 757 mmHg 93%
    10:00 -10°C° 0 mm 3 m/s 757 mmHg 93%
    11:00 -9°C° 0 mm 3 m/s 757 mmHg 92%
    12:00 -9°C° 0 mm 4 m/s 756 mmHg 92%
    13:00 -9°C° 0 mm 4 m/s 756 mmHg 91%
    14:00 -8°C° 0 mm 5 m/s 755 mmHg 91%
    15:00 -7°C° 0 mm 5 m/s 755 mmHg 90%
    16:00 -8°C° 0 mm 5 m/s 755 mmHg 90%
    17:00 -10°C° 0 mm 5 m/s 755 mmHg 90%
    18:00 -9°C° 0 mm 4 m/s 755 mmHg 90%
    19:00 -10°C° 0 mm 5 m/s 754 mmHg 90%
    20:00 -10°C° 0 mm 5 m/s 754 mmHg 90%
    21:00 -8°C° 0 mm 5 m/s 754 mmHg 90%
    22:00 -8°C° 0 mm 5 m/s 754 mmHg 90%
    23:00 -8°C° 0 mm 5 m/s 754 mmHg 91%

    Poimâine, 21 Februarie, Joi

    Timp Temperatura Precipitaţii Vânt Presiune Umiditate
    00:00 -8°C° 0 mm 5 m/s 754 mmHg 91%
    01:00 -8°C° 0.1 mm 5 m/s 753 mmHg 92%
    02:00 -8°C° 0.1 mm 5 m/s 753 mmHg 92%
    03:00 -8°C° 0.1 mm 5 m/s 753 mmHg 92%
    04:00 -8°C° 0 mm 5 m/s 752 mmHg 93%
    05:00 -7°C° 0 mm 5 m/s 752 mmHg 93%
    06:00 -7°C° 0 mm 5 m/s 752 mmHg 93%
    07:00 -7°C° 0.1 mm 5 m/s 752 mmHg 93%
    08:00 -8°C° 0.1 mm 6 m/s 752 mmHg 93%
    09:00 -6°C° 0.1 mm 6 m/s 752 mmHg 93%
    10:00 -6°C° 0.2 mm 6 m/s 752 mmHg 93%
    11:00 -5°C° 0.2 mm 6 m/s 752 mmHg 93%
    12:00 -5°C° 0.2 mm 5 m/s 751 mmHg 93%
    13:00 -5°C° 0.2 mm 5 m/s 751 mmHg 93%
    14:00 -4°C° 0.2 mm 5 m/s 751 mmHg 93%
    15:00 -4°C° 0.2 mm 5 m/s 751 mmHg 93%
    16:00 -4°C° 0.2 mm 5 m/s 750 mmHg 93%
    17:00 -4°C° 0.2 mm 5 m/s 750 mmHg 92%
    18:00 -4°C° 0.2 mm 5 m/s 750 mmHg 92%
    19:00 -2°C° 0.1 mm 5 m/s 749 mmHg 92%
    20:00 -2°C° 0.1 mm 5 m/s 749 mmHg 92%
    21:00 -2°C° 0.1 mm 5 m/s 748 mmHg 92%
    22:00 -2°C° 0.3 mm 5 m/s 748 mmHg 93%
    23:00 -2°C° 0.3 mm 5 m/s 747 mmHg 94%

    22 Februarie, Vineri

    Timp Temperatura Precipitaţii Vânt Presiune Umiditate
    00:00 -2°C° 0.3 mm 4 m/s 746 mmHg 94%
    01:00 -2°C° 0.4 mm 4 m/s 746 mmHg 94%
    02:00 -2°C° 0.4 mm 4 m/s 746 mmHg 94%
    03:00 -2°C° 0.4 mm 4 m/s 745 mmHg 94%
    04:00 -3°C° 0.1 mm 4 m/s 745 mmHg 93%
    05:00 -5°C° 0.1 mm 5 m/s 745 mmHg 91%
    06:00 -6°C° 0.1 mm 6 m/s 745 mmHg 90%
    07:00 -8°C° 0 mm 6 m/s 745 mmHg 91%
    08:00 -8°C° 0 mm 5 m/s 745 mmHg 93%
    09:00 -10°C° 0 mm 5 m/s 745 mmHg 94%
    10:00 -8°C° 0.1 mm 5 m/s 745 mmHg 94%
    11:00 -7°C° 0.1 mm 5 m/s 746 mmHg 93%
    12:00 -6°C° 0.1 mm 5 m/s 746 mmHg 92%
    13:00 -5°C° 0.3 mm 6 m/s 747 mmHg 91%
    14:00 -5°C° 0.3 mm 6 m/s 747 mmHg 90%
    15:00 -4°C° 0.3 mm 6 m/s 748 mmHg 89%
    16:00 -6°C° 0 mm 6 m/s 749 mmHg 89%
    17:00 -8°C° 0 mm 5 m/s 750 mmHg 89%
    18:00 -10°C° 0 mm 4 m/s 751 mmHg 89%
    19:00 -11°C° 0 mm 4 m/s 752 mmHg 89%
    20:00 -12°C° 0 mm 4 m/s 753 mmHg 90%
    21:00 -13°C° 0 mm 3 m/s 754 mmHg 91%
    22:00 -14°C° 0 mm 3 m/s 755 mmHg 91%
    23:00 -14°C° 0 mm 3 m/s 755 mmHg 92%

    23 Februarie, Sâmbătă

    Timp Temperatura Precipitaţii Vânt Presiune Umiditate
    00:00 -14°C° 0 mm 2 m/s 756 mmHg 93%
    01:00 -14°C° 0 mm 2 m/s 757 mmHg 93%
    02:00 -15°C° 0 mm 2 m/s 758 mmHg 94%
    03:00 -16°C° 0 mm 2 m/s 758 mmHg 94%
    04:00 -16°C° 0 mm 2 m/s 759 mmHg 94%
    05:00 -17°C° 0 mm 2 m/s 759 mmHg 94%
    06:00 -18°C° 0 mm 2 m/s 760 mmHg 94%
    07:00 -17°C° 0 mm 2 m/s 760 mmHg 94%
    08:00 -17°C° 0 mm 2 m/s 761 mmHg 93%
    09:00 -16°C° 0 mm 2 m/s 761 mmHg 92%
    10:00 -15°C° 0 mm 2 m/s 762 mmHg 91%
    11:00 -14°C° 0 mm 2 m/s 762 mmHg 89%
    12:00 -13°C° 0 mm 2 m/s 762 mmHg 88%
    13:00 -13°C° 0 mm 2 m/s 763 mmHg 88%
    14:00 -12°C° 0 mm 2 m/s 763 mmHg 88%
    15:00 -12°C° 0 mm 2 m/s 763 mmHg 88%
    16:00 -13°C° 0 mm 2 m/s 764 mmHg 89%
    17:00 -12°C° 0 mm 1 m/s 764 mmHg 91%
    18:00 -14°C° 0 mm 1 m/s 764 mmHg 92%
    19:00 -14°C° 0 mm 1 m/s 765 mmHg 93%
    20:00 -15°C° 0 mm 1 m/s 765 mmHg 93%
    21:00 -16°C° 0 mm 1 m/s 766 mmHg 94%
    22:00 -16°C° 0 mm 1 m/s 766 mmHg 94%
    23:00 -17°C° 0 mm 1 m/s 766 mmHg 94%

    24 Februarie, Duminică

    Timp Temperatura Precipitaţii Vânt Presiune Umiditate
    00:00 -17°C° 0 mm 1 m/s 767 mmHg 94%
    01:00 -17°C° 0 mm 1 m/s 767 mmHg 95%
    02:00 -18°C° 0 mm 1 m/s 767 mmHg 96%
    03:00 -18°C° 0 mm 1 m/s 768 mmHg 96%
    04:00 -18°C° 0 mm 1 m/s 768 mmHg 97%
    05:00 -19°C° 0 mm 1 m/s 768 mmHg 97%
    06:00 -19°C° 0 mm 1 m/s 768 mmHg 97%
    07:00 -18°C° 0 mm 1 m/s 769 mmHg 96%
    08:00 -17°C° 0 mm 0 m/s 769 mmHg 94%
    09:00 -15°C° 0 mm 0 m/s 769 mmHg 93%
    10:00 -14°C° 0 mm 0 m/s 769 mmHg 91%
    11:00 -13°C° 0 mm 0 m/s 769 mmHg 89%
    12:00 -11°C° 0 mm 0 m/s 769 mmHg 87%
    13:00 -11°C° 0 mm 0 m/s 768 mmHg 88%
    14:00 -11°C° 0 mm 1 m/s 768 mmHg 88%
    15:00 -11°C° 0 mm 1 m/s 768 mmHg 89%
    16:00 -12°C° 0 mm 1 m/s 767 mmHg 91%
    17:00 -13°C° 0 mm 1 m/s 767 mmHg 93%
    18:00 -15°C° 0 mm 1 m/s 767 mmHg 95%
    19:00 -18°C° 0 mm 2 m/s 766 mmHg 95%
    20:00 -18°C° 0 mm 2 m/s 766 mmHg 95%
    21:00 -19°C° 0 mm 2 m/s 765 mmHg 95%
    22:00 -19°C° 0 mm 2 m/s 764 mmHg 95%
    23:00 -19°C° 0 mm 2 m/s 764 mmHg 94%
    Arată mai mult